Theta_e
322 322 325 320 304 304 298 300 307 304 306 312 313 310 308 310 307 304 339 343 343 342 347 347 348 351 351 352 351 352 351 351 351 351 352 350 350 350 350 350 350 348 348 348 345 346 344 342 339
318 321 321 314 300 295 298 304 301 306 310 311 311 311 310 309 319 324 335 343 343 343 345 347 344 349 351 351 350 351 351 351 351 350 350 350 349 349 349 348 348 348 347 346 346 345 341 337 334
319 321 312 305 301 295 296 302 304 307 310 309 309 313 311 312 322 331 340 343 344 344 345 345 344 350 351 351 350 350 350 350 350 350 349 350 349 350 349 348 348 347 347 346 344 340 336 332 332
316 315 310 299 296 300 301 303 306 306 308 310 310 306 313 325 326 336 343 344 343 343 345 342 344 349 350 350 350 350 349 349 349 349 349 349 349 348 348 347 347 346 343 341 338 334 331 329 331
316 310 300 297 297 300 303 305 306 304 305 306 308 305 309 321 324 335 341 343 342 343 344 343 343 347 346 348 349 348 348 348 348 348 348 347 347 346 345 343 342 340 338 336 333 330 328 327 327
307 307 296 293 295 299 302 306 304 304 305 306 305 306 310 318 317 331 338 341 343 342 344 344 337 341 343 344 346 346 346 346 346 347 346 345 344 343 341 339 338 335 334 332 330 327 326 325 324
303 301 295 295 294 296 301 305 303 303 304 305 309 304 311 313 315 329 337 340 341 343 344 345 344 342 334 340 341 341 342 342 343 344 343 341 340 340 339 337 335 333 331 329 326 324 324 323 321
307 302 294 296 294 294 302 303 305 304 303 310 310 305 306 312 314 325 337 339 341 342 343 343 344 345 344 345 334 333 336 337 339 338 334 332 332 332 331 330 332 330 328 325 323 322 320 319 317
307 297 293 294 294 297 303 300 304 306 303 305 307 307 311 313 314 317 328 331 336 337 339 341 342 341 342 341 336 332 329 331 331 329 327 328 332 330 329 325 327 327 324 322 320 318 316 314 313
302 296 294 299 300 299 301 300 301 300 300 301 303 307 309 310 310 311 313 316 322 328 335 338 340 337 335 332 332 331 336 337 336 333 332 331 330 330 325 319 321 321 319 317 315 312 310 312 309
301 295 299 299 301 302 299 298 301 298 297 301 298 300 303 305 307 308 308 309 310 313 328 336 336 337 333 328 329 328 329 329 330 332 328 326 322 324 323 318 316 315 314 311 310 310 309 310 309
296 299 299 300 300 298 297 300 298 299 300 300 301 302 302 302 303 302 303 304 306 308 311 329 335 332 329 329 327 326 328 326 324 322 324 323 322 323 321 318 315 313 313 312 311 310 310 309 309
295 296 297 298 298 297 297 295 296 297 300 300 301 301 300 301 301 303 304 304 305 305 308 311 326 333 328 328 329 327 327 326 323 322 320 321 319 319 316 313 311 311 312 310 309 309 308 308 308
296 296 296 296 296 295 293 294 294 297 299 299 299 300 301 300 301 302 302 301 302 304 306 309 314 332 332 329 329 328 327 326 324 321 319 316 312 309 310 311 310 309 311 310 309 308 308 308 309
295 291 294 294 294 294 295 292 292 296 298 297 298 299 300 301 301 300 300 299 301 303 306 309 312 318 330 328 330 330 328 327 324 321 317 315 313 311 309 309 310 308 308 309 308 307 308 308 308
290 291 287 293 294 295 294 288 295 296 296 296 297 298 298 299 299 299 299 298 300 302 304 309 312 318 327 329 330 326 327 324 323 321 317 314 312 310 308 308 306 307 307 307 306 307 306 307 306
290 285 287 289 294 293 292 289 295 296 295 295 296 296 296 297 298 298 298 298 299 302 304 308 312 321 327 327 325 322 321 320 318 318 316 313 310 308 307 305 305 304 305 306 305 306 307 306 305
286 286 287 286 291 291 290 290 293 295 293 293 294 294 295 295 295 296 297 298 300 302 304 308 313 315 324 322 320 318 318 317 316 315 314 311 309 307 305 304 303 303 302 302 304 305 306 306 303
288 286 285 289 291 288 288 289 291 294 293 292 292 292 293 293 295 296 296 298 299 301 302 305 310 312 318 319 317 315 313 314 313 312 309 308 307 307 304 302 300 302 299 299 300 301 302 303 304
287 285 285 288 290 288 288 288 291 293 293 291 290 290 290 292 293 293 294 296 298 299 299 300 302 305 309 315 318 318 315 313 312 310 308 307 307 306 304 302 301 301 298 298 298 299 299 301 303
286 284 285 285 288 290 287 286 288 292 292 289 289 289 289 289 289 290 292 293 295 296 298 298 298 299 302 305 312 311 310 309 307 307 307 307 307 306 305 304 303 301 299 297 297 298 298 298 300
283 289 287 286 284 280 286 278 286 289 287 287 287 288 288 288 289 289 289 290 292 294 297 298 298 297 298 301 305 308 307 307 307 306 305 305 305 304 303 302 300 298 298 298 298 300 300 303 301
285 289 287 286 284 283 283 280 284 287 286 286 287 287 287 288 288 287 288 289 290 292 294 295 296 297 298 298 299 302 304 303 304 304 303 302 302 301 300 300 299 298 297 297 300 298 299 302 302
289 286 286 285 283 277 282 281 281 285 286 288 287 286 286 287 287 288 289 289 290 291 292 293 293 294 296 297 297 297 299 301 302 301 301 301 302 302 301 300 299 299 298 296 296 297 299 301 301
287 284 278 276 275 275 281 279 282 287 288 288 285 285 286 287 287 287 287 288 288 289 290 291 291 291 293 295 296 296 297 299 299 300 302 301 301 301 301 300 299 299 299 297 297 297 297 298 298
285 284 278 271 273 276 280 275 282 285 287 288 287 286 286 287 287 287 287 288 288 288 289 289 290 290 291 292 293 295 295 297 299 300 300 301 302 303 303 301 300 299 298 297 296 295 296 297 297
283 281 285 279 279 273 278 282 283 284 283 283 283 284 285 286 286 287 288 289 288 288 288 289 289 289 290 290 291 292 293 294 294 296 299 301 301 301 303 303 301 299 297 296 295 294 294 295 297
284 286 278 279 270 269 275 278 279 281 281 282 282 283 285 286 286 286 287 288 289 289 289 289 289 289 289 290 290 290 291 292 293 294 293 295 297 300 301 302 302 301 297 296 294 293 293 293 294
282 280 281 280 278 272 271 275 284 283 285 283 283 284 285 285 285 286 287 288 289 290 289 288 288 288 288 289 289 289 289 290 291 291 291 292 293 294 297 299 300 300 299 296 294 293 293 292 293
281 280 281 276 274 277 276 276 285 284 285 287 285 285 286 286 286 286 287 287 287 288 289 289 288 288 288 288 288 288 288 288 288 287 288 290 289 290 292 295 298 298 298 298 294 293 292 291 292
Wind_Speed
14 8 5 6 6 4 7 3 7 3 4 7 11 8 13 10 6 5 6 5 2 6 10 9 8 10 9 7 9 8 7 8 8 10 11 11 10 10 10 9 8 9 12 14 13 13 12 11 10
11 7 5 3 6 7 1 4 6 9 10 11 10 8 7 3 8 3 4 8 1 6 7 10 8 9 8 8 9 8 8 8 9 10 11 10 10 9 10 9 8 9 10 12 13 15 12 10 10
9 6 5 4 4 6 8 8 8 7 7 8 7 10 5 8 12 7 9 3 2 5 7 5 6 9 9 10 9 9 8 8 9 10 11 11 11 10 10 11 11 11 12 15 15 12 12 11 11
4 5 4 7 7 2 7 11 9 13 11 3 7 11 2 10 7 9 6 3 1 3 3 8 2 8 7 8 9 9 9 8 9 10 11 12 12 12 12 14 15 16 16 15 14 13 12 11 11
4 3 5 5 6 4 6 8 11 12 12 9 8 10 7 9 13 10 9 3 3 4 5 6 6 7 8 7 8 9 9 9 9 10 12 14 16 16 16 16 15 16 15 15 15 13 12 11 11
4 4 5 7 4 3 5 7 10 9 8 7 8 10 6 8 17 12 7 6 2 3 3 5 6 5 7 8 7 9 10 10 10 12 14 16 16 15 16 16 15 15 15 15 14 14 13 12 12
5 4 5 6 6 5 5 8 7 10 8 9 11 9 6 15 16 12 6 8 3 3 4 5 6 7 7 6 5 6 9 10 11 15 16 15 14 15 14 14 15 15 15 14 14 13 13 13 12
4 4 3 1 6 5 5 7 5 9 12 9 7 9 11 14 15 12 4 3 6 4 6 6 6 6 7 7 6 7 5 7 13 14 13 14 14 14 13 11 11 14 14 14 14 13 13 13 12
3 5 3 3 4 5 2 6 8 8 12 10 5 10 11 12 14 12 8 4 2 3 6 6 5 5 4 7 8 8 4 1 11 13 15 11 9 10 12 12 11 13 14 13 13 14 13 14 12
6 3 4 4 5 7 7 7 10 9 11 12 10 13 13 13 14 11 9 10 11 12 9 7 4 7 8 6 8 12 9 1 3 7 8 7 9 6 10 11 13 13 13 13 12 10 7 4 5
0 3 3 2 4 7 9 9 4 8 9 11 13 16 16 14 11 11 12 12 13 13 10 5 3 3 4 3 4 2 2 4 6 4 7 9 7 7 6 6 6 7 7 6 6 4 5 6 5
6 2 4 3 2 6 10 11 11 12 8 8 10 12 12 13 10 10 13 14 14 12 14 11 3 3 3 3 4 3 3 3 5 6 5 7 4 4 5 4 4 3 3 5 5 4 6 7 7
7 3 4 6 7 10 12 14 13 12 3 9 7 7 9 10 11 10 10 11 14 14 12 13 11 7 4 3 5 4 6 1 5 4 4 3 5 2 4 5 4 4 4 4 5 5 6 7 6
3 8 10 7 8 8 9 12 2 2 7 10 7 7 8 8 11 11 11 13 13 14 13 14 12 7 5 6 6 5 5 4 3 2 4 2 5 4 6 3 5 5 4 4 4 5 6 6 6
5 8 8 9 5 4 6 13 10 4 7 8 7 9 8 8 10 11 12 12 13 12 13 13 13 13 4 7 6 6 5 5 4 5 7 7 6 7 1 3 3 4 5 6 6 6 6 6 6
6 5 6 9 4 5 3 14 8 3 7 9 8 8 9 9 9 11 13 12 12 12 13 12 10 11 5 2 3 4 4 4 3 4 6 9 11 6 5 1 4 4 4 4 5 4 5 6 6
7 9 7 5 4 4 8 11 6 1 7 9 8 8 8 9 10 10 12 13 13 12 12 12 11 10 2 4 3 4 4 5 3 4 4 7 8 10 7 4 3 4 4 2 4 4 4 6 6
9 7 6 9 5 7 13 19 16 3 7 8 6 7 7 9 10 12 12 12 12 12 12 11 9 9 7 5 4 4 3 3 4 4 4 7 8 7 6 5 4 2 6 4 4 3 5 5 5
9 11 14 13 6 7 15 18 15 10 7 7 5 5 6 7 8 11 11 11 12 12 13 12 12 14 7 2 2 2 2 2 2 4 7 8 8 6 6 5 6 2 4 4 4 3 6 4 4
9 12 15 12 7 6 14 18 17 14 11 6 5 2 4 6 8 10 12 12 12 13 13 13 13 13 10 7 4 2 2 3 3 3 5 7 8 7 6 5 3 2 6 6 2 3 3 2 4
11 13 14 15 12 14 15 18 20 13 4 5 4 1 2 5 8 10 12 14 13 14 14 12 12 12 12 12 4 3 3 4 2 3 3 3 6 7 6 6 5 6 3 4 5 5 5 3 2
11 5 10 11 9 6 1 10 14 9 10 10 6 5 2 4 7 9 11 13 15 13 12 13 12 12 11 12 8 7 4 2 3 2 2 3 5 5 6 6 5 5 3 5 5 6 6 3 5
3 3 4 8 12 14 13 8 6 3 12 12 9 5 3 4 6 8 10 11 12 13 13 13 13 13 11 12 11 8 7 5 3 3 4 4 4 4 5 5 6 5 3 2 3 2 4 4 2
3 4 6 5 7 8 15 14 9 6 3 8 10 7 5 4 4 6 8 9 11 12 12 12 14 14 14 13 11 11 9 7 5 4 2 2 2 3 5 5 5 5 3 3 1 3 4 4 3
6 6 4 5 5 7 6 8 14 6 4 4 10 9 7 4 4 6 8 9 10 12 12 11 13 14 13 14 13 12 10 8 7 5 3 2 2 1 2 4 4 4 4 4 4 2 2 3 4
7 8 5 7 9 12 4 7 3 5 3 2 9 9 7 5 4 4 6 7 8 10 11 12 12 13 14 13 12 11 12 7 7 5 2 3 3 3 3 4 4 3 4 4 3 2 2 4 4
3 6 6 11 10 7 11 17 4 4 3 5 7 9 9 7 4 3 4 6 7 8 9 9 10 10 11 12 10 11 11 11 9 9 8 5 1 1 2 2 4 5 4 4 4 3 4 3 4
6 5 4 4 7 16 14 17 13 7 8 9 11 11 10 7 5 3 4 5 5 4 5 6 7 8 9 9 9 9 10 10 10 9 10 9 8 7 4 2 4 5 4 4 4 3 3 4 2
5 5 7 8 9 14 17 13 3 1 7 12 13 13 11 8 5 2 3 6 5 4 4 4 5 7 7 8 8 9 9 9 9 9 9 9 9 9 7 5 4 3 4 5 5 4 4 4 4
4 8 12 11 17 15 14 16 5 1 5 9 12 11 10 8 6 3 5 7 6 5 5 5 3 3 4 6 7 7 7 8 9 9 9 10 10 10 8 7 6 5 4 6 6 6 5 6 5
Wind_Direction
286 280 287 249 253 221 275 329 339 318 305 23 321 315 321 314 314 7 42 24 41 160 138 165 166 160 161 167 186 170 170 156 144 137 143 147 145 145 142 140 143 148 143 132 129 123 108 96 91
309 302 239 283 262 255 352 32 291 3 357 323 304 319 270 19 29 12 1 11 152 154 163 162 160 158 151 167 182 176 175 167 154 146 145 144 146 146 141 138 139 148 148 131 124 109 103 99 91
278 275 271 277 284 289 351 29 10 336 331 335 319 333 336 1 15 10 14 7 266 159 171 144 166 155 162 171 181 184 183 174 162 155 149 145 142 136 131 126 126 130 121 115 99 104 105 100 93
273 197 207 257 271 302 307 330 346 314 311 334 319 294 340 53 359 344 9 27 268 200 181 107 167 171 170 177 180 186 190 179 165 159 151 139 131 125 119 112 111 104 100 110 110 103 98 96 92
239 252 265 260 286 305 321 326 324 309 300 305 356 293 301 50 4 0 359 353 293 231 231 197 190 181 200 186 189 193 190 180 165 151 141 131 122 117 113 109 109 110 111 107 104 101 96 91 87
219 300 237 270 351 2 317 10 319 307 332 334 326 321 299 40 4 349 351 315 292 269 217 227 171 203 191 205 197 196 199 182 163 138 134 130 121 119 117 115 114 112 107 105 105 102 97 90 85
302 268 311 303 293 305 16 343 333 333 322 16 332 298 329 24 356 349 351 311 283 287 246 236 219 202 213 192 202 204 211 187 153 130 127 120 118 116 113 114 119 118 113 110 106 101 99 96 91
290 266 271 212 330 320 49 328 344 333 315 331 332 333 327 0 348 350 319 306 314 286 259 244 242 238 228 196 203 225 215 158 139 127 116 110 106 104 99 104 115 117 112 108 106 103 98 91 84
275 247 270 335 305 16 68 331 316 331 280 300 303 300 321 326 341 346 332 292 273 286 301 291 284 291 336 8 20 318 275 182 125 121 125 131 121 113 138 87 99 105 106 104 102 100 100 97 80
270 267 35 6 336 310 317 313 312 305 310 296 324 324 326 331 329 337 343 343 354 354 349 336 32 85 93 81 49 28 5 337 161 158 141 128 114 127 105 89 86 93 99 100 101 105 131 199 115
113 297 40 300 335 318 303 292 331 293 295 354 325 320 325 316 315 337 347 351 348 346 351 29 51 161 154 185 107 35 4 46 321 223 128 110 102 111 125 125 124 126 144 123 129 129 68 69 74
262 301 298 319 6 300 290 308 287 280 291 344 326 342 335 343 349 345 344 343 342 339 352 334 301 185 192 142 121 116 114 76 47 342 349 104 120 130 137 130 113 123 101 111 95 81 81 77 73
249 266 275 274 278 277 286 276 272 275 331 314 330 334 350 343 345 346 351 347 340 344 332 333 327 290 208 162 145 128 143 173 223 84 13 51 82 94 145 132 133 111 115 108 105 104 95 85 76
6 289 277 276 274 270 275 281 295 159 334 293 314 322 336 343 342 337 355 348 347 335 334 324 308 280 276 211 187 165 162 166 140 114 116 82 94 54 339 141 124 116 99 103 111 115 105 94 90
288 286 273 243 241 269 287 261 230 4 314 291 304 314 326 331 343 345 345 345 343 331 330 328 313 310 233 203 187 172 161 163 157 154 135 122 106 129 100 306 104 110 107 110 110 110 107 101 92
262 256 264 129 227 171 246 280 138 328 313 303 314 319 321 327 336 345 340 346 340 334 333 328 325 304 301 235 160 107 110 144 162 165 151 151 143 126 116 343 58 102 113 111 120 121 114 107 112
204 275 230 261 182 292 226 285 133 211 304 300 315 325 328 332 342 352 347 349 344 341 339 339 330 337 289 83 90 90 121 128 142 140 129 136 129 141 152 142 148 119 84 53 122 109 110 114 107
307 245 248 266 146 250 267 267 271 246 291 291 308 322 335 341 357 351 356 354 352 354 353 348 342 3 40 66 66 73 78 63 107 119 133 137 130 140 132 126 122 75 115 112 83 110 109 106 121
294 284 279 281 288 294 268 275 282 268 252 260 286 321 343 357 0 5 3 5 0 10 10 4 5 0 347 120 101 96 101 86 77 96 118 118 121 141 141 124 113 103 89 68 135 106 95 108 131
263 270 271 284 291 267 282 280 277 260 234 263 278 301 358 3 8 15 12 15 15 13 17 17 10 8 9 12 34 48 98 85 89 102 117 134 140 139 135 127 123 93 117 112 118 84 96 56 196
256 268 280 283 301 269 272 278 258 233 189 206 214 203 37 28 17 19 23 21 20 21 15 24 21 17 19 359 14 63 82 74 81 107 122 144 142 140 146 147 150 161 113 144 171 161 162 151 231
284 316 269 278 287 279 149 290 290 198 203 209 194 193 107 51 46 34 27 27 24 22 23 24 31 29 25 16 13 20 25 66 41 96 103 105 115 121 136 135 137 137 131 186 190 194 201 198 170
291 348 286 279 278 290 265 248 275 226 215 204 194 172 131 70 49 47 37 32 32 25 26 29 31 36 40 36 30 21 27 35 33 60 102 111 106 118 135 138 143 143 154 208 209 217 246 198 153
8 281 263 267 276 257 256 235 277 296 286 207 169 180 153 103 74 60 54 40 37 31 28 29 35 36 35 41 41 39 28 19 36 40 55 70 102 144 164 152 153 151 155 143 87 25 312 288 191
228 264 281 238 216 256 26 289 250 320 18 314 176 173 154 139 88 52 41 36 35 32 27 25 25 30 31 38 39 39 36 36 39 19 15 33 126 139 198 188 176 175 176 166 165 179 259 279 277
215 219 262 287 293 314 109 251 299 22 350 251 158 157 153 155 130 64 48 40 33 32 29 24 25 26 22 28 31 33 37 33 29 24 48 8 354 336 155 195 204 198 173 166 168 167 231 256 244
101 223 286 284 263 270 263 274 188 93 118 155 168 182 177 165 160 107 57 42 29 24 29 28 25 27 26 25 20 24 27 32 25 20 15 13 99 316 332 213 204 201 196 180 179 189 211 242 254
245 11 248 201 269 271 274 278 271 183 200 203 198 202 187 177 175 135 54 21 14 10 12 23 29 30 27 24 27 24 18 17 21 21 18 9 2 350 343 265 230 199 192 187 185 189 193 216 232
196 230 224 281 264 276 281 270 49 289 217 209 213 209 197 190 182 155 2 354 334 323 347 9 22 19 19 24 24 25 25 18 18 19 11 4 357 352 339 323 303 259 207 191 196 197 191 208 214
285 279 267 248 264 250 260 270 151 197 282 233 217 213 203 198 196 247 319 336 332 320 325 338 355 13 14 16 15 24 23 22 19 14 5 359 355 349 333 324 307 273 237 215 199 204 196 192 211